| time (UTC) | temp F | wind direction | speed MPH | gust MPH | rain 1hr in | rain 24hr in | rain mn in | humidity % | barometer mb |
| 20260831004110 | 83 | 84 | 3.0 | 11.0 | 0.00 | 0.00 | 0.00 | 36 | 1003.2 |
| 20260831003048 | 83 | 73 | 6.0 | 16.0 | 0.00 | 0.00 | 0.00 | 37 | 1003.0 |
| 20260831002046 | 83 | 55 | 7.0 | 16.0 | 0.00 | 0.00 | 0.00 | 36 | 1002.8 |
| 20260831001044 | 84 | 78 | 8.0 | 13.0 | 0.00 | 0.00 | 0.00 | 34 | 1002.7 |
| 20260830234927 | 86 | 77 | 10.0 | 17.0 | 0.00 | 0.00 | 0.00 | 32 | 1002.4 |
| 20260830233950 | 86 | 57 | 8.0 | 18.0 | 0.00 | 0.00 | 0.00 | 32 | 1002.4 |
| 20260830232946 | 87 | 66 | 9.0 | 18.0 | 0.00 | 0.00 | 0.00 | 29 | 1002.4 |
| 20260830231915 | 89 | 92 | 9.0 | 18.0 | 0.00 | 0.00 | 0.00 | 26 | 1002.4 |
| 20260830230935 | 90 | 65 | 9.0 | 17.0 | 0.00 | 0.00 | 0.00 | 25 | 1002.5 |
| 20260830225953 | 90 | 73 | 8.0 | 18.0 | 0.00 | 0.00 | 0.00 | 26 | 1002.4 |
| 20260830225004 | 89 | 88 | 9.0 | 18.0 | 0.00 | 0.00 | 0.00 | 28 | 1002.5 |
| 20260830224002 | 89 | 87 | 4.0 | 16.0 | 0.00 | 0.00 | 0.00 | 27 | 1002.4 |
| 20260830222927 | 89 | 73 | 6.0 | 12.0 | 0.00 | 0.00 | 0.00 | 27 | 1002.7 |
| 20260830221918 | 90 | 75 | 7.0 | 13.0 | 0.00 | 0.00 | 0.00 | 29 | 1002.7 |
| 20260830220902 | 88 | 156 | 7.0 | 18.0 | 0.00 | 0.00 | 0.00 | 30 | 1002.8 |
| 20260830215832 | 89 | 105 | 9.0 | 18.0 | 0.00 | 0.00 | 0.00 | 29 | 1003.0 |
| 20260830214840 | 88 | 148 | 8.0 | 13.0 | 0.00 | 0.00 | 0.00 | 31 | 1003.0 |
| 20260830213900 | 89 | 44 | 5.0 | 16.0 | 0.00 | 0.00 | 0.00 | 30 | 1003.3 |
| 20260830212903 | 88 | 119 | 8.0 | 16.0 | 0.00 | 0.00 | 0.00 | 31 | 1003.5 |
| 20260830211925 | 88 | 125 | 6.0 | 14.0 | 0.00 | 0.00 | 0.00 | 31 | 1003.6 |
| 20260830210859 | 88 | 68 | 6.0 | 15.0 | 0.00 | 0.00 | 0.00 | 31 | 1003.8 |
| 20260830205909 | 87 | 77 | 8.0 | 15.0 | 0.00 | 0.00 | 0.00 | 32 | 1003.9 |
| 20260830204932 | 88 | 109 | 6.0 | 14.0 | 0.00 | 0.00 | 0.00 | 32 | 1004.0 |
| 20260830203906 | 87 | 126 | 6.0 | 14.0 | 0.00 | 0.00 | 0.00 | 32 | 1004.3 |
| 20260830202832 | 86 | 79 | 5.0 | 13.0 | 0.00 | 0.00 | 0.00 | 32 | 1004.6 |
| 20260830200636 | 87 | 130 | 7.0 | 13.0 | 0.00 | 0.00 | 0.00 | 31 | 1005.0 |
| 20260830195617 | 87 | 90 | 8.0 | 15.0 | 0.00 | 0.00 | 0.00 | 30 | 1005.0 |
| 20260830194630 | 87 | 75 | 6.0 | 20.0 | 0.00 | 0.00 | 0.00 | 31 | 1005.0 |
| 20260830193630 | 86 | 74 | 8.0 | 20.0 | 0.00 | 0.00 | 0.00 | 32 | 1005.2 |
| 20260830191441 | 85 | 94 | 6.0 | 14.0 | 0.00 | 0.00 | 0.00 | 33 | 1005.4 |
| 20260830190435 | 84 | 95 | 9.0 | 14.0 | 0.00 | 0.00 | 0.00 | 34 | 1005.4 |
| 20260830185406 | 84 | 83 | 6.0 | 14.0 | 0.00 | 0.00 | 0.00 | 34 | 1005.5 |
| 20260830183230 | 85 | 129 | 7.0 | 14.0 | 0.00 | 0.00 | 0.00 | 33 | 1005.9 |
| 20260830182241 | 84 | 100 | 6.0 | 17.0 | 0.00 | 0.00 | 0.00 | 34 | 1006.0 |
| 20260830181247 | 83 | 73 | 8.0 | 17.0 | 0.00 | 0.00 | 0.00 | 36 | 1006.2 |
| 20260830175100 | 82 | 58 | 7.0 | 15.0 | 0.00 | 0.00 | 0.00 | 38 | 1006.3 |
| 20260830174059 | 82 | 132 | 8.0 | 14.0 | 0.00 | 0.00 | 0.00 | 39 | 1006.5 |
| 20260830173042 | 82 | 118 | 8.0 | 18.0 | 0.00 | 0.00 | 0.00 | 37 | 1006.6 |
| 20260830172045 | 80 | 108 | 10.0 | 18.0 | 0.00 | 0.00 | 0.00 | 41 | 1006.6 |
| 20260830171104 | 80 | 98 | 10.0 | 16.0 | 0.00 | 0.00 | 0.00 | 39 | 1006.5 |
| 20260830170035 | 80 | 67 | 9.0 | 15.0 | 0.00 | 0.00 | 0.00 | 40 | 1006.6 |
| 20260830165021 | 80 | 72 | 9.0 | 16.0 | 0.00 | 0.00 | 0.00 | 42 | 1006.6 |
| 20260830164009 | 80 | 119 | 8.0 | 16.0 | 0.00 | 0.00 | 0.00 | 40 | 1006.4 |
| 20260830163005 | 80 | 116 | 7.0 | 14.0 | 0.00 | 0.00 | 0.00 | 42 | 1006.4 |
| 20260830161958 | 79 | 72 | 8.0 | 14.0 | 0.00 | 0.00 | 0.00 | 45 | 1006.5 |
| 20260830160929 | 80 | 110 | 7.0 | 14.0 | 0.00 | 0.00 | 0.00 | 41 | 1006.3 |
| 20260830155929 | 80 | 135 | 7.0 | 14.0 | 0.00 | 0.00 | 0.00 | 40 | 1006.2 |
| 20260830153830 | 79 | 136 | 6.0 | 11.0 | 0.00 | 0.00 | 0.00 | 44 | 1006.1 |
| 20260830152847 | 79 | 137 | 5.0 | 11.0 | 0.00 | 0.00 | 0.00 | 43 | 1006.1 |
| 20260830151902 | 80 | 97 | 4.0 | 11.0 | 0.00 | 0.00 | 0.00 | 38 | 1006.1 |
| 20260830150839 | 79 | 83 | 4.0 | 9.0 | 0.00 | 0.00 | 0.00 | 39 | 1006.1 |
| 20260830145835 | 78 | 123 | 3.0 | 8.0 | 0.00 | 0.00 | 0.00 | 40 | 1006.1 |
| 20260830143651 | 74 | 121 | 2.0 | 9.0 | 0.00 | 0.00 | 0.00 | 51 | 1006.2 |
| 20260830142649 | 72 | 91 | 3.0 | 9.0 | 0.00 | 0.00 | 0.00 | 60 | 1006.1 |
| 20260830141615 | 71 | 159 | 1.0 | 3.0 | 0.00 | 0.00 | 0.00 | 60 | 1006.1 |
| 20260830140634 | 68 | 134 | 1.0 | 4.0 | 0.00 | 0.00 | 0.00 | 67 | 1006.2 |
| 20260830135652 | 66 | 109 | 2.0 | 6.0 | 0.00 | 0.00 | 0.00 | 73 | 1006.1 |
| 20260830134636 | 65 | 99 | 3.0 | 6.0 | 0.00 | 0.00 | 0.00 | 74 | 1006.1 |
| 20260830133611 | 65 | 97 | 2.0 | 5.0 | 0.00 | 0.00 | 0.00 | 73 | 1006.1 |
| 20260830132633 | 65 | 79 | 2.0 | 4.0 | 0.00 | 0.00 | 0.00 | 71 | 1006.0 |
| 20260830131609 | 64 | 90 | 2.0 | 5.0 | 0.00 | 0.00 | 0.00 | 74 | 1005.9 |
| 20260830130541 | 67 | 95 | 2.0 | 6.0 | 0.00 | 0.00 | 0.00 | 64 | 1005.7 |
| 20260830125605 | 69 | 123 | 4.0 | 6.0 | 0.00 | 0.00 | 0.00 | 57 | 1005.4 |
| 20260830124539 | 66 | 142 | 3.0 | 6.0 | 0.00 | 0.00 | 0.00 | 63 | 1005.3 |
| 20260830123525 | 64 | 114 | 2.0 | 5.0 | 0.00 | 0.00 | 0.00 | 71 | 1005.1 |
| 20260830122522 | 63 | 134 | 2.0 | 6.0 | 0.00 | 0.00 | 0.00 | 75 | 1005.0 |
| 20260830121459 | 63 | 113 | 3.0 | 6.0 | 0.00 | 0.00 | 0.00 | 75 | 1005.0 |
| 20260830120502 | 63 | 71 | 3.0 | 6.0 | 0.00 | 0.00 | 0.00 | 76 | 1005.0 |
| 20260830115503 | 64 | 119 | 4.0 | 10.0 | 0.00 | 0.00 | 0.00 | 70 | 1005.0 |
| 20260830114445 | 64 | 105 | 3.0 | 10.0 | 0.00 | 0.00 | 0.00 | 75 | 1004.9 |
| 20260830113456 | 65 | 103 | 3.0 | 8.0 | 0.00 | 0.00 | 0.00 | 68 | 1004.8 |
| 20260830112446 | 65 | 121 | 2.0 | 10.0 | 0.00 | 0.00 | 0.00 | 70 | 1004.9 |
| 20260830111429 | 68 | 29 | 4.0 | 11.0 | 0.00 | 0.00 | 0.00 | 62 | 1004.9 |
| 20260830110359 | 69 | 91 | 3.0 | 11.0 | 0.00 | 0.00 | 0.00 | 58 | 1004.8 |
| 20260830105333 | 69 | 117 | 4.0 | 11.0 | 0.00 | 0.00 | 0.00 | 57 | 1005.0 |
| 20260830104324 | 68 | 98 | 3.0 | 8.0 | 0.00 | 0.00 | 0.00 | 60 | 1005.1 |
| 20260830102151 | 68 | 88 | 2.0 | 5.0 | 0.00 | 0.00 | 0.00 | 61 | 1005.1 |
| 20260830101152 | 68 | 61 | 2.0 | 10.0 | 0.00 | 0.00 | 0.00 | 61 | 1005.0 |
| 20260830100120 | 69 | 106 | 3.0 | 10.0 | 0.00 | 0.00 | 0.00 | 60 | 1004.9 |
| 20260830095122 | 69 | 71 | 4.0 | 8.0 | 0.00 | 0.00 | 0.00 | 60 | 1005.0 |
| 20260830094116 | 69 | 82 | 5.0 | 9.0 | 0.00 | 0.00 | 0.00 | 60 | 1005.1 |
| 20260830093139 | 69 | 96 | 4.0 | 12.0 | 0.00 | 0.00 | 0.00 | 61 | 1005.1 |
| 20260830084857 | 71 | 149 | 10.0 | 20.0 | 0.00 | 0.00 | 0.00 | 56 | 1005.1 |
| 20260830083842 | 71 | 118 | 11.0 | 20.0 | 0.00 | 0.00 | 0.00 | 55 | 1005.1 |
| 20260830082837 | 72 | 128 | 7.0 | 17.0 | 0.00 | 0.00 | 0.00 | 54 | 1005.2 |
| 20260830081840 | 72 | 107 | 8.0 | 17.0 | 0.00 | 0.00 | 0.00 | 53 | 1005.2 |
| 20260830075733 | 73 | 118 | 10.0 | 17.0 | 0.00 | 0.00 | 0.00 | 50 | 1005.0 |
| 20260830074740 | 73 | 90 | 6.0 | 14.0 | 0.00 | 0.00 | 0.00 | 50 | 1005.0 |
| 20260830073734 | 73 | 147 | 6.0 | 13.0 | 0.00 | 0.00 | 0.00 | 52 | 1005.1 |
| 20260830072758 | 73 | 94 | 6.0 | 13.0 | 0.00 | 0.00 | 0.00 | 52 | 1005.1 |
| 20260830071733 | 74 | 94 | 5.0 | 12.0 | 0.00 | 0.00 | 0.00 | 49 | 1005.0 |
| 20260830070722 | 74 | 55 | 4.0 | 12.0 | 0.00 | 0.00 | 0.00 | 48 | 1005.0 |
| 20260830065738 | 74 | 105 | 4.0 | 8.0 | 0.00 | 0.00 | 0.00 | 47 | 1004.7 |
| 20260830064707 | 74 | 92 | 5.0 | 9.0 | 0.00 | 0.00 | 0.00 | 46 | 1004.6 |
| 20260830062520 | 75 | 102 | 3.0 | 6.0 | 0.00 | 0.00 | 0.00 | 45 | 1004.3 |
| 20260830061535 | 75 | 86 | 5.0 | 12.0 | 0.00 | 0.00 | 0.00 | 43 | 1004.4 |
| 20260830060519 | 76 | 61 | 5.0 | 12.0 | 0.00 | 0.00 | 0.00 | 43 | 1004.5 |
| 20260830055531 | 76 | 57 | 3.0 | 8.0 | 0.00 | 0.00 | 0.00 | 40 | 1004.5 |
| 20260830054538 | 77 | 72 | 3.0 | 7.0 | 0.00 | 0.00 | 0.00 | 37 | 1004.5 |
| 20260830052421 | 78 | 78 | 1.0 | 4.0 | 0.00 | 0.00 | 0.00 | 34 | 1004.4 |
| 20260830051411 | 78 | 89 | 1.0 | 6.0 | 0.00 | 0.00 | 0.00 | 34 | 1004.4 |
| 20260830050429 | 79 | 96 | 2.0 | 6.0 | 0.00 | 0.00 | 0.00 | 33 | 1004.5 |
| 20260830045433 | 80 | 76 | 2.0 | 5.0 | 0.00 | 0.00 | 0.00 | 33 | 1004.6 |
| 20260830044414 | 80 | 125 | 2.0 | 4.0 | 0.00 | 0.00 | 0.00 | 32 | 1004.5 |
| 20260830043404 | 80 | 138 | 2.0 | 6.0 | 0.00 | 0.00 | 0.00 | 31 | 1004.4 |
| 20260830042340 | 80 | 127 | 3.0 | 6.0 | 0.00 | 0.00 | 0.00 | 31 | 1004.5 |
| 20260830041328 | 80 | 130 | 2.0 | 5.0 | 0.00 | 0.00 | 0.00 | 32 | 1004.4 |
| 20260830040321 | 80 | 123 | 2.0 | 10.0 | 0.00 | 0.00 | 0.00 | 32 | 1004.4 |
| 20260830035341 | 81 | 127 | 5.0 | 10.0 | 0.00 | 0.00 | 0.00 | 31 | 1004.4 |
| 20260830033242 | 81 | 100 | 3.0 | 10.0 | 0.00 | 0.00 | 0.00 | 31 | 1004.2 |
| 20260830032207 | 81 | 107 | 5.0 | 10.0 | 0.00 | 0.00 | 0.00 | 32 | 1003.9 |
| 20260830031132 | 80 | 91 | 4.0 | 14.0 | 0.00 | 0.00 | 0.00 | 34 | 1003.7 |
| 20260830030133 | 81 | 92 | 7.0 | 14.0 | 0.00 | 0.00 | 0.00 | 33 | 1003.6 |
| 20260830025114 | 82 | 69 | 7.0 | 13.0 | 0.00 | 0.00 | 0.00 | 30 | 1003.5 |
| 20260830022916 | 82 | 46 | 0.0 | 2.0 | 0.00 | 0.00 | 0.00 | 28 | 1003.3 |
| 20260830021850 | 82 | 348 | 0.0 | 2.0 | 0.00 | 0.00 | 0.00 | 28 | 1003.1 |
| 20260830020847 | 83 | 4 | 0.0 | 1.0 | 0.00 | 0.00 | 0.00 | 28 | 1003.0 |
| 20260830015847 | 83 | 346 | 0.0 | 1.0 | 0.00 | 0.00 | 0.00 | 28 | 1002.9 |
| 20260830014824 | 84 | 359 | 0.0 | 1.0 | 0.00 | 0.00 | 0.00 | 27 | 1002.9 |
| 20260830013811 | 84 | 346 | 0.0 | 3.0 | 0.00 | 0.00 | 0.00 | 26 | 1002.9 |
| 20260830012754 | 85 | 14 | 0.0 | 2.0 | 0.00 | 0.00 | 0.00 | 25 | 1002.9 |
| 20260830010541 | 87 | 42 | 2.0 | 8.0 | 0.00 | 0.00 | 0.00 | 24 | 1002.8 |
| 20260830005601 | 88 | 21 | 3.0 | 8.0 | 0.00 | 0.00 | 0.00 | 23 | 1002.6 |
| 20260830004622 | 89 | 28 | 3.0 | 9.0 | 0.00 | 0.00 | 0.00 | 22 | 1002.7 |